[[{"header":{"parameterUnit":"m.s-1","parameterCategory":1,"la1":30.2991,"la2":30.254,"lo1":-89.0895,"lo2":-89.0444,"dy":0.0017,"dx":0.0017,"nx":28,"ny":28,"refTime":"2023-07-22T21:00:00:Z","depth":0,"parameterNumber":2,"parameterNumberName":"U-component_of_WINDS"},"data":[0,0,0,0,0,0,0,0,0,0,0,0,0,0,0,0,0,0,0,0,0,0,0,0,0,0,0,0,0,0,0,0,0,0,0,0,0,0,0,0,0,0,0,0,0,0,0,0,0,0,0,0,0,0,0,0,0,0,-1.207,-1.207,0,-1.2031,-1.203,-1.203,-1.2042,-1.2043,-1.2044,-1.2045,-1.2002,-1.2,-1.1998,0,0,0,0,0,0,0,0,0,0,0,0,0,-1.2153,-1.2151,-1.207,-1.207,-1.2069,-1.2031,-1.203,-1.203,-1.2042,-1.2043,-1.2044,-1.2045,-1.2002,-1.2,-1.1998,0,0,0,0,0,0,0,0,0,0,0,0,0,-1.2115,-1.2151,-1.207,-1.2071,-1.207,-1.2031,-1.203,-1.203,-1.2042,-1.2043,-1.2044,-1.2046,-1.2003,-1.2,-1.1997,-1.1954,0,0,-1.1988,-1.1987,0,0,0,0,0,0,0,0,-1.2117,-1.2112,-1.2071,-1.2071,-1.207,-1.2043,-1.2044,-1.2004,-1.2042,-1.2053,-1.2045,-1.2046,-1.2014,-1.201,-1.2,-1.1952,-1.195,-1.1988,-1.1986,-1.1985,-1.1984,0,0,0,0,0,0,0,-1.212,-1.2114,-1.2054,-1.207,-1.207,-1.2072,-1.2068,-1.2036,-1.2027,-1.2052,-1.2053,-1.2048,-1.2014,-1.2003,-1.1999,-1.1949,-1.1988,-1.1986,-1.1984,-1.1983,-1.1863,-1.1861,0,0,0,0,0,0,-1.2123,-1.2116,-1.2056,-1.2053,-1.2098,-1.2069,-1.2065,-1.205,-1.2027,-1.2025,-1.2047,-1.2049,-1.2007,-1.2002,-1.1998,-1.1945,-1.1985,-1.1982,-1.1981,-1.1864,-1.1862,-1.1861,0,0,0,0,0,0,-1.2125,-1.2118,-1.2057,-1.2085,-1.2077,-1.2067,-1.205,-1.2049,-1.2038,-1.2023,-1.2021,-1.2037,-1.2008,-1.2002,-1.1965,-1.1943,-1.1981,-1.1978,-1.1866,-1.1864,-1.1862,-1.1839,0,0,0,0,0,0,-1.2127,-1.2118,-1.2103,-1.2085,-1.2076,-1.2026,-1.2049,-1.2047,-1.2033,-1.2035,-1.2014,-1.2012,-1.2008,-1.1969,-1.1962,-1.194,-1.1976,-1.1868,-1.1865,-1.1862,-1.1841,-1.1836,-1.1831,0,0,0,0,0,-1.213,-1.2097,-1.2102,-1.2094,-1.2056,-1.2025,-1.202,-1.2017,-1.2031,-1.2015,-1.2005,-1.2012,-1.1947,-1.1965,-1.1957,-1.1934,-1.1869,-1.1866,-1.1862,-1.1843,-1.1837,-1.1832,0,0,0,0,0,0,-1.2112,-1.2095,-1.21,-1.206,-1.2044,-1.2027,-1.2006,-1.2011,-1.199,-1.1992,-1.1989,-1.1985,-1.1946,-1.1937,-1.1957,-1.189,-1.191,-1.1905,-1.1898,-1.1892,-1.1887,-1.189,-1.1974,0,0,0,0,0,-1.2104,-1.2081,-1.2067,-1.2033,-1.2025,-1.2017,-1.2003,-1.2003,-1.1985,-1.1978,-1.1966,-1.1948,-1.1924,-1.1907,-1.1884,-1.184,-1.1835,-1.182,-1.1815,-1.1812,-1.1807,-1.1782,-1.1775,-1.185,-1.185,-1.185,0,0,-1.2086,-1.2074,-1.2059,-1.2029,-1.2016,-1.1991,-1.2011,-1.1984,-1.1965,-1.1974,-1.1938,-1.1929,-1.1908,-1.1867,-1.1849,-1.1858,-1.1785,-1.1807,-1.1804,-1.1802,-1.1778,-1.1771,-1.1764,-1.1848,-1.1848,-1.1849,0,0,-1.204,-1.2029,-1.1999,-1.1986,-1.1967,-1.1962,-1.1955,-1.1937,-1.1932,-1.1896,-1.1902,-1.1879,-1.1837,-1.1822,-1.1809,-1.1757,-1.1762,-1.175,-1.1724,-1.1699,-1.1693,-1.1688,-1.1668,-1.1661,-1.1745,-1.1745,-1.1745,0,-1.202,-1.1983,-1.1983,-1.1956,-1.1942,-1.195,-1.1919,-1.1906,-1.188,-1.1869,-1.1881,-1.1828,-1.1815,-1.177,-1.1757,-1.1747,-1.1737,-1.1751,-1.1694,-1.1689,-1.1684,-1.1665,-1.1658,-1.1744,-1.1744,-1.1744,-1.1744,0,-1.1959,-1.1933,-1.1912,-1.1887,-1.1871,-1.1841,-1.1836,-1.1819,-1.182,-1.1814,-1.1777,-1.1761,-1.1735,-1.1724,-1.1725,-1.1679,-1.1685,-1.1695,-1.1715,-1.1675,-1.1658,-1.1651,-1.1741,-1.1742,-1.1742,-1.1743,0,0,-1.19,-1.1876,-1.1868,-1.1856,-1.1836,-1.1816,-1.1786,-1.1761,-1.1746,-1.1728,-1.1702,-1.1667,-1.1676,-1.1661,-1.166,-1.1639,-1.1597,-1.1651,-1.165,-1.1641,-1.1544,-1.1536,-1.1528,-1.1601,-1.16,-1.1598,-1.1546,0,-1.1852,-1.1802,-1.18,-1.1754,-1.173,-1.1737,-1.1711,-1.1695,-1.1688,-1.1666,-1.1657,-1.1632,-1.1646,-1.1637,-1.1617,-1.1607,-1.1578,-1.161,-1.1576,-1.1575,-1.158,-1.1519,-1.151,-1.1461,-1.1539,-1.1538,-1.1537,0,-1.1789,-1.1769,-1.172,-1.1703,-1.1693,-1.167,-1.1646,-1.1625,-1.1607,-1.1603,-1.1586,-1.1588,-1.1557,-1.1578,-1.1534,-1.1557,-1.1542,-1.1535,-1.1533,-1.1529,-1.1553,-1.1512,-1.1446,-1.1438,-1.1526,-1.1527,-1.1528,0,-1.175,-1.1711,-1.1677,-1.1667,-1.1646,-1.1629,-1.1619,-1.1602,-1.1587,-1.1566,-1.1556,-1.1531,-1.1517,-1.1498,-1.1492,-1.1508,-1.1448,-1.1469,-1.1443,-1.1443,-1.1429,-1.143,-1.1359,-1.1422,-1.1422,-1.1422,-1.1422,0,-1.1695,-1.1665,-1.1659,-1.1637,-1.1603,-1.1602,-1.1567,-1.1559,-1.1543,-1.1519,-1.1524,-1.1501,-1.1496,-1.1472,-1.1468,-1.1432,-1.1426,-1.1421,-1.142,-1.142,-1.142,-1.141,-1.1412,-1.142,-1.1421,-1.1421,-1.1421,0,-1.1646,-1.164,-1.1603,-1.1586,-1.1581,-1.1557,-1.1542,-1.1521,-1.1514,-1.1484,-1.1477,-1.1466,-1.1438,-1.1431,-1.1398,-1.1395,-1.1351,-1.1354,-1.1358,-1.1358,-1.1331,-1.1334,-1.125,-1.1238,-1.131,-1.131,-1.1309,0,-1.1611,-1.1588,-1.1569,-1.1553,-1.1543,-1.1519,-1.1503,-1.15,-1.1484,-1.1461,-1.1442,-1.1415,-1.1393,-1.1347,-1.1336,-1.131,-1.1311,-1.1284,-1.1307,-1.1308,-1.1309,-1.131,-1.1308,-1.1279,-1.1278,-1.1278,-1.1277,0,-1.1549,-1.1548,-1.1526,-1.1503,-1.1484,-1.1466,-1.1448,-1.1435,-1.1429,-1.141,-1.1382,-1.1365,-1.1331,-1.1303,-1.1277,-1.1266,-1.127,-1.127,-1.1262,-1.1261,-1.1264,-1.1261,-1.1344,-1.1272,-1.1272,-1.1273,-1.1273,-1.1273,-1.1505,-1.1485,-1.1468,-1.1443,-1.1429,-1.1412,-1.1392,-1.1383,-1.136,-1.1332,-1.1332,-1.1301,-1.1282,-1.1247,-1.1234,-1.1209,-1.1217,-1.1207,-1.1204,-1.1201,-1.1198,-1.1269,-1.1204,-1.1205,-1.1205,-1.1205,-1.1205,0,-1.1443,-1.1433,-1.141,-1.1385,-1.1365,-1.1372,-1.1352,-1.1335,-1.1308,-1.129,-1.1269,-1.1236,-1.1209,-1.1195,-1.1168,-1.115,-1.1152,-1.1143,-1.1144,-1.1141,-1.1193,-1.1201,-1.1143,-1.1143,-1.1143,-1.1143,-1.1143,-1.1143,-1.1408,-1.1373,-1.137,-1.1328,-1.1317,-1.1288,-1.1276,-1.126,-1.1246,-1.1209,-1.1187,-1.1179,-1.1162,-1.1134,-1.1109,-1.1106,-1.1095,-1.1086,-1.1083,-1.1131,-1.1138,-1.1144,-1.1152,-1.1084,-1.1084,-1.1033,-1.1033,-1.1033]},{"header":{"parameterUnit":"m.s-1","parameterCategory":1,"la1":30.2991,"la2":30.254,"lo1":-89.0895,"lo2":-89.0444,"dy":0.0017,"dx":0.0017,"nx":28,"ny":28,"refTime":"2023-07-22T21:00:00:Z","depth":0,"parameterNumber":3,"parameterNumberName":"V-component_of_WINDS"},"data":[0,0,0,0,0,0,0,0,0,0,0,0,0,0,0,0,0,0,0,0,0,0,0,0,0,0,0,0,0,0,0,0,0,0,0,0,0,0,0,0,0,0,0,0,0,0,0,0,0,0,0,0,0,0,0,0,0,0,-1.8911,-1.891,0,-1.8852,-1.8851,-1.885,-1.8814,-1.8814,-1.8814,-1.8814,-1.8749,-1.8747,-1.8746,0,0,0,0,0,0,0,0,0,0,0,0,0,-1.899,-1.8989,-1.8911,-1.891,-1.891,-1.8852,-1.8851,-1.885,-1.8814,-1.8814,-1.8814,-1.8814,-1.8749,-1.8747,-1.8746,0,0,0,0,0,0,0,0,0,0,0,0,0,-1.8946,-1.8989,-1.8911,-1.8885,-1.8882,-1.8852,-1.8851,-1.885,-1.8814,-1.8814,-1.8814,-1.8814,-1.875,-1.8748,-1.8745,-1.8736,0,0,-1.8738,-1.8737,0,0,0,0,0,0,0,0,-1.8948,-1.8943,-1.889,-1.8887,-1.8883,-1.884,-1.8855,-1.8812,-1.8814,-1.884,-1.8814,-1.8814,-1.8779,-1.8774,-1.8764,-1.8733,-1.873,-1.8738,-1.8736,-1.8735,-1.8735,0,0,0,0,0,0,0,-1.8952,-1.8945,-1.8888,-1.8889,-1.8885,-1.8875,-1.8868,-1.8847,-1.8811,-1.8838,-1.8835,-1.8829,-1.8777,-1.8766,-1.8762,-1.8729,-1.8738,-1.8736,-1.8734,-1.8733,-1.8688,-1.8689,0,0,0,0,0,0,-1.8959,-1.8948,-1.8889,-1.8886,-1.8916,-1.8874,-1.8866,-1.8854,-1.8812,-1.8805,-1.8829,-1.8827,-1.877,-1.8765,-1.8759,-1.8746,-1.8735,-1.8733,-1.8732,-1.8688,-1.8688,-1.8689,0,0,0,0,0,0,-1.8961,-1.8954,-1.8892,-1.8916,-1.8908,-1.8873,-1.8859,-1.8853,-1.8842,-1.8805,-1.8798,-1.8824,-1.877,-1.8763,-1.8742,-1.8744,-1.8732,-1.873,-1.8688,-1.8688,-1.8689,-1.872,0,0,0,0,0,0,-1.8964,-1.8955,-1.8952,-1.8917,-1.8906,-1.8877,-1.8859,-1.8852,-1.8838,-1.8836,-1.8799,-1.8792,-1.8769,-1.8746,-1.874,-1.874,-1.8728,-1.8688,-1.8688,-1.8689,-1.8718,-1.8721,-1.8723,0,0,0,0,0,-1.8967,-1.8962,-1.8952,-1.8945,-1.8902,-1.8877,-1.8871,-1.8846,-1.8839,-1.8835,-1.8811,-1.8793,-1.8745,-1.8744,-1.8737,-1.8737,-1.8687,-1.8688,-1.8688,-1.8717,-1.8721,-1.8723,0,0,0,0,0,0,-1.8996,-1.8956,-1.8945,-1.8929,-1.8907,-1.8871,-1.8865,-1.885,-1.8828,-1.8826,-1.8794,-1.8786,-1.8769,-1.875,-1.8751,-1.8726,-1.8714,-1.8713,-1.8738,-1.8741,-1.8744,-1.8748,-1.8726,0,0,0,0,0,-1.9001,-1.8986,-1.8951,-1.894,-1.893,-1.89,-1.8888,-1.8871,-1.8846,-1.8836,-1.8811,-1.8786,-1.8766,-1.8752,-1.8731,-1.8716,-1.8707,-1.8712,-1.8714,-1.8717,-1.8716,-1.8708,-1.871,-1.869,-1.869,-1.869,0,0,-1.901,-1.8987,-1.8979,-1.8946,-1.8927,-1.8911,-1.8892,-1.8875,-1.8863,-1.8833,-1.8813,-1.8794,-1.8764,-1.8747,-1.8738,-1.8731,-1.872,-1.8717,-1.8719,-1.8717,-1.8708,-1.871,-1.8712,-1.8691,-1.8691,-1.8691,0,0,-1.902,-1.9,-1.899,-1.8972,-1.8944,-1.8924,-1.8921,-1.8888,-1.8875,-1.8855,-1.8833,-1.8817,-1.8781,-1.8762,-1.8747,-1.8752,-1.8734,-1.8745,-1.8758,-1.875,-1.8752,-1.8753,-1.8755,-1.8756,-1.8745,-1.8745,-1.8745,0,-1.9034,-1.9011,-1.8986,-1.8971,-1.8958,-1.8932,-1.8921,-1.8904,-1.8869,-1.886,-1.8853,-1.881,-1.8788,-1.8767,-1.8768,-1.8757,-1.8753,-1.8749,-1.8754,-1.8755,-1.8756,-1.8757,-1.8758,-1.8747,-1.8746,-1.8746,-1.8746,0,-1.903,-1.9014,-1.9009,-1.8979,-1.8965,-1.8952,-1.8925,-1.8913,-1.8897,-1.8878,-1.8859,-1.8832,-1.8806,-1.8799,-1.8783,-1.8776,-1.8772,-1.876,-1.8748,-1.8759,-1.876,-1.8761,-1.8749,-1.8748,-1.8748,-1.8747,0,0,-1.9055,-1.9014,-1.9012,-1.8999,-1.8967,-1.8954,-1.894,-1.8916,-1.8907,-1.8885,-1.8872,-1.8844,-1.8833,-1.8817,-1.8798,-1.8791,-1.8798,-1.878,-1.8779,-1.8785,-1.8789,-1.8799,-1.88,-1.8787,-1.8786,-1.8786,-1.8792,0,-1.906,-1.9035,-1.9014,-1.8997,-1.8982,-1.8958,-1.8946,-1.8925,-1.8907,-1.8891,-1.8871,-1.8852,-1.8839,-1.8829,-1.8821,-1.8799,-1.8798,-1.8798,-1.8774,-1.8774,-1.8782,-1.88,-1.881,-1.8816,-1.8792,-1.8792,-1.8792,0,-1.9061,-1.9043,-1.9025,-1.8997,-1.899,-1.898,-1.8957,-1.8942,-1.8918,-1.8905,-1.8888,-1.8869,-1.8853,-1.8843,-1.8821,-1.8821,-1.881,-1.8798,-1.8797,-1.8794,-1.8783,-1.8797,-1.8817,-1.8818,-1.8792,-1.8792,-1.8792,0,-1.9082,-1.9052,-1.9038,-1.9028,-1.8994,-1.8987,-1.8973,-1.8949,-1.8936,-1.8916,-1.8907,-1.8885,-1.8872,-1.8855,-1.8831,-1.8825,-1.8811,-1.8798,-1.88,-1.88,-1.8797,-1.8798,-1.8816,-1.879,-1.879,-1.879,-1.879,0,-1.909,-1.908,-1.9047,-1.9039,-1.9027,-1.9002,-1.8991,-1.8974,-1.8953,-1.8941,-1.8918,-1.8906,-1.8875,-1.8859,-1.8839,-1.8824,-1.8819,-1.8808,-1.8803,-1.881,-1.8811,-1.8802,-1.8801,-1.879,-1.879,-1.879,-1.879,0,-1.911,-1.9088,-1.9071,-1.9042,-1.9034,-1.9027,-1.9001,-1.8992,-1.8974,-1.8958,-1.8953,-1.8923,-1.8904,-1.8878,-1.885,-1.8837,-1.8824,-1.8816,-1.8833,-1.883,-1.8833,-1.8834,-1.8846,-1.8846,-1.8821,-1.8821,-1.8821,0,-1.9116,-1.9109,-1.9079,-1.907,-1.9057,-1.9042,-1.903,-1.9005,-1.8994,-1.8967,-1.8961,-1.894,-1.8922,-1.8892,-1.8868,-1.8847,-1.8838,-1.8844,-1.8834,-1.8842,-1.8838,-1.8839,-1.8839,-1.8846,-1.8846,-1.8847,-1.8847,0,-1.913,-1.912,-1.9105,-1.9086,-1.9073,-1.9056,-1.9038,-1.9032,-1.9003,-1.8991,-1.8972,-1.8959,-1.8932,-1.8911,-1.8887,-1.8871,-1.8854,-1.885,-1.885,-1.8857,-1.8867,-1.8862,-1.884,-1.885,-1.885,-1.8849,-1.8849,-1.8849,-1.9144,-1.9136,-1.9115,-1.9099,-1.9084,-1.9068,-1.9059,-1.904,-1.9025,-1.9002,-1.8988,-1.897,-1.8947,-1.8913,-1.8898,-1.8883,-1.8876,-1.8875,-1.8875,-1.8875,-1.8877,-1.887,-1.8878,-1.8878,-1.8878,-1.8878,-1.8878,0,-1.9157,-1.9143,-1.9128,-1.9105,-1.9093,-1.908,-1.906,-1.905,-1.9035,-1.9016,-1.9,-1.8979,-1.896,-1.8935,-1.8914,-1.8907,-1.8899,-1.8902,-1.8902,-1.8899,-1.8884,-1.8887,-1.8909,-1.8909,-1.8909,-1.8909,-1.8909,-1.8909,-1.9162,-1.9149,-1.9137,-1.9117,-1.9103,-1.9086,-1.9076,-1.9062,-1.9047,-1.9025,-1.901,-1.8995,-1.8973,-1.8951,-1.8933,-1.8926,-1.8919,-1.8925,-1.8916,-1.8903,-1.89,-1.8897,-1.89,-1.8924,-1.8924,-1.8932,-1.8932,-1.8932]}]]